Time,TemperatureF,DewpointF,PressureIn,WindDirection,WindDirectionDegrees,WindSpeedMPH,WindSpeedGustMPH,Humidity,HourlyPrecipIn,Conditions,Clouds,dailyrainin,SoftwareType,DateUTC
2017-07-21 00:02:00,60.8,51.7,29.79,South,180,0.0,0.2,72,0.00,CLR,,0.00,WeatherDisplay:10.37,2017-07-21 07:02:00,
2017-07-21 00:07:00,60.4,51.7,29.79,South,180,0.0,0.2,73,0.00,CLR,,0.00,WeatherDisplay:10.37,2017-07-21 07:07:00,
2017-07-21 00:12:00,60.3,51.9,29.79,SW,225,0.0,0.3,74,0.00,CLR,,0.00,WeatherDisplay:10.37,2017-07-21 07:12:00,
2017-07-21 00:17:00,60.6,52.3,29.79,SE,135,0.0,0.2,74,0.00,CLR,,0.00,WeatherDisplay:10.37,2017-07-21 07:17:00,
2017-07-21 00:22:00,60.3,51.6,29.79,WSW,248,0.0,0.2,73,0.00,CLR,,0.00,WeatherDisplay:10.37,2017-07-21 07:22:00,
2017-07-21 00:27:00,60.3,51.6,29.79,SSE,158,0.0,0.2,73,0.00,CLR,,0.00,WeatherDisplay:10.37,2017-07-21 07:27:00,
2017-07-21 00:32:00,60.1,51.4,29.79,SW,225,0.0,0.0,73,0.00,CLR,,0.00,WeatherDisplay:10.37,2017-07-21 07:32:00,
2017-07-21 00:38:00,59.7,51.0,29.79,South,180,0.0,0.0,73,0.00,CLR,,0.00,WeatherDisplay:10.37,2017-07-21 07:38:00,
2017-07-21 00:43:00,59.5,51.2,29.79,South,180,0.0,0.0,74,0.00,CLR,,0.00,WeatherDisplay:10.37,2017-07-21 07:43:00,
2017-07-21 00:48:00,59.5,51.2,29.79,South,180,1.2,1.2,74,0.00,CLR,,0.00,WeatherDisplay:10.37,2017-07-21 07:48:00,
2017-07-21 00:53:00,59.5,51.2,29.79,SW,225,0.0,0.1,74,0.00,CLR,,0.00,WeatherDisplay:10.37,2017-07-21 07:53:00,
2017-07-21 00:58:00,59.4,51.1,29.79,South,180,0.0,0.0,74,0.00,CLR,,0.00,WeatherDisplay:10.37,2017-07-21 07:58:00,
2017-07-21 01:03:00,59.2,50.9,29.79,SSE,158,0.0,0.0,74,0.00,CLR,,0.00,WeatherDisplay:10.37,2017-07-21 08:03:00,
2017-07-21 01:08:00,59.2,51.3,29.79,SSE,158,0.0,0.0,75,0.00,CLR,,0.00,WeatherDisplay:10.37,2017-07-21 08:08:00,
2017-07-21 01:13:00,59.0,51.1,29.79,WSW,248,0.0,0.0,75,0.00,CLR,,0.00,WeatherDisplay:10.37,2017-07-21 08:13:00,
2017-07-21 01:19:00,58.6,50.7,29.79,WSW,248,0.0,0.0,75,0.00,CLR,,0.00,WeatherDisplay:10.37,2017-07-21 08:19:00,
2017-07-21 01:24:00,58.5,50.6,29.79,SW,225,0.0,0.0,75,0.00,CLR,,0.00,WeatherDisplay:10.37,2017-07-21 08:24:00,
2017-07-21 01:29:00,58.1,50.6,29.80,SW,225,1.2,1.2,76,0.00,CLR,,0.00,WeatherDisplay:10.37,2017-07-21 08:29:00,
2017-07-21 01:34:00,57.9,50.8,29.80,SW,225,1.2,1.2,77,0.00,CLR,,0.00,WeatherDisplay:10.37,2017-07-21 08:34:00,
2017-07-21 01:39:00,57.9,50.8,29.80,SSW,202,1.2,1.2,77,0.00,CLR,,0.00,WeatherDisplay:10.37,2017-07-21 08:39:00,
2017-07-21 01:44:00,57.7,50.6,29.80,SSE,158,1.2,1.2,77,0.00,CLR,,0.00,WeatherDisplay:10.37,2017-07-21 08:44:00,
2017-07-21 01:49:00,57.7,50.6,29.80,SW,225,1.2,1.2,77,0.00,CLR,,0.00,WeatherDisplay:10.37,2017-07-21 08:49:00,
2017-07-21 01:54:00,57.7,50.6,29.80,WNW,292,0.0,0.1,77,0.00,CLR,,0.00,WeatherDisplay:10.37,2017-07-21 08:54:00,
2017-07-21 01:59:00,57.4,50.2,29.80,WSW,248,0.0,0.0,77,0.00,CLR,,0.00,WeatherDisplay:10.37,2017-07-21 08:59:00,
2017-07-21 02:04:00,57.2,50.1,29.80,SW,225,0.0,0.0,77,0.00,CLR,,0.00,WeatherDisplay:10.37,2017-07-21 09:04:00,
2017-07-21 02:10:00,57.2,50.1,29.80,WSW,248,0.0,0.0,77,0.00,CLR,,0.00,WeatherDisplay:10.37,2017-07-21 09:10:00,
2017-07-21 02:15:00,57.0,50.2,29.80,WSW,248,2.3,2.3,78,0.00,CLR,,0.00,WeatherDisplay:10.37,2017-07-21 09:15:00,
2017-07-21 02:20:00,57.0,50.2,29.80,SW,225,0.0,0.3,78,0.00,CLR,,0.00,WeatherDisplay:10.37,2017-07-21 09:20:00,
2017-07-21 02:25:00,56.7,49.9,29.80,SW,225,0.0,0.0,78,0.00,CLR,,0.00,WeatherDisplay:10.37,2017-07-21 09:25:00,
2017-07-21 02:30:00,56.7,49.9,29.80,SW,225,0.0,0.0,78,0.00,CLR,,0.00,WeatherDisplay:10.37,2017-07-21 09:30:00,
2017-07-21 02:33:00,56.3,49.9,29.80,SSW,202,0.0,0.0,79,0.00,CLR,,0.00,WeatherDisplay:10.37,2017-07-21 09:33:00,
2017-07-21 02:38:00,56.3,49.9,29.80,SW,225,0.0,0.0,79,0.00,CLR,,0.00,WeatherDisplay:10.37,2017-07-21 09:38:00,
2017-07-21 02:43:00,56.1,49.7,29.80,South,180,0.0,0.0,79,0.00,CLR,,0.00,WeatherDisplay:10.37,2017-07-21 09:43:00,
2017-07-21 02:48:00,56.3,49.9,29.81,SW,225,0.0,0.0,79,0.00,CLR,,0.00,WeatherDisplay:10.37,2017-07-21 09:48:00,
2017-07-21 02:53:00,56.1,49.7,29.81,SW,225,0.0,0.0,79,0.00,CLR,,0.00,WeatherDisplay:10.37,2017-07-21 09:53:00,
2017-07-21 02:58:00,55.9,49.5,29.81,WSW,248,0.0,0.0,79,0.00,CLR,,0.00,WeatherDisplay:10.37,2017-07-21 09:58:00,
2017-07-21 03:03:00,55.9,49.5,29.81,WSW,248,0.0,0.0,79,0.00,CLR,,0.00,WeatherDisplay:10.37,2017-07-21 10:03:00,
2017-07-21 03:09:00,55.9,49.9,29.81,WSW,248,0.0,0.0,80,0.00,CLR,,0.00,WeatherDisplay:10.37,2017-07-21 10:09:00,
2017-07-21 03:14:00,55.6,49.8,29.81,SW,225,1.2,1.2,81,0.00,CLR,,0.00,WeatherDisplay:10.37,2017-07-21 10:14:00,
2017-07-21 03:19:00,55.6,50.2,29.81,SSW,202,0.0,0.3,82,0.00,CLR,,0.00,WeatherDisplay:10.37,2017-07-21 10:19:00,
2017-07-21 03:24:00,55.2,49.5,29.81,SSW,202,0.0,0.3,81,0.00,CLR,,0.00,WeatherDisplay:10.37,2017-07-21 10:24:00,
2017-07-21 03:29:00,55.0,49.3,29.81,SSW,202,0.0,0.0,81,0.00,CLR,,0.00,WeatherDisplay:10.37,2017-07-21 10:29:00,
2017-07-21 03:34:00,55.0,49.3,29.81,SSW,202,0.0,0.0,81,0.00,CLR,,0.00,WeatherDisplay:10.37,2017-07-21 10:34:00,
2017-07-21 03:39:00,55.0,49.3,29.81,SSW,202,0.0,0.0,81,0.00,CLR,,0.00,WeatherDisplay:10.37,2017-07-21 10:39:00,
2017-07-21 03:44:00,54.7,49.0,29.81,South,180,0.0,0.0,81,0.00,CLR,,0.00,WeatherDisplay:10.37,2017-07-21 10:44:00,
2017-07-21 03:49:00,54.5,48.8,29.80,South,180,0.0,0.0,81,0.00,CLR,,0.00,WeatherDisplay:10.37,2017-07-21 10:49:00,
2017-07-21 03:55:00,54.3,48.6,29.80,South,180,0.0,0.0,81,0.00,CLR,,0.00,WeatherDisplay:10.37,2017-07-21 10:55:00,
2017-07-21 04:00:00,54.3,48.6,29.80,SSW,202,0.0,0.0,81,0.00,CLR,,0.00,WeatherDisplay:10.37,2017-07-21 11:00:00,
2017-07-21 04:02:00,54.5,48.8,29.80,WSW,248,0.0,0.0,81,0.00,CLR,,0.00,WeatherDisplay:10.37,2017-07-21 11:02:00,
2017-07-21 04:07:00,54.3,48.9,29.80,SSW,202,0.0,0.0,82,0.00,CLR,,0.00,WeatherDisplay:10.37,2017-07-21 11:07:00,
2017-07-21 04:10:00,54.1,48.8,29.81,SSW,202,0.0,0.0,82,0.00,CLR,,0.00,WeatherDisplay:10.37,2017-07-21 11:10:00,
2017-07-21 04:15:00,54.0,48.9,29.81,South,180,0.0,0.1,83,0.00,CLR,,0.00,WeatherDisplay:10.37,2017-07-21 11:15:00,
2017-07-21 04:20:00,53.8,48.7,29.81,South,180,0.0,0.1,83,0.00,CLR,,0.00,WeatherDisplay:10.37,2017-07-21 11:20:00,
2017-07-21 04:25:00,53.6,48.6,29.81,South,180,0.0,0.0,83,0.00,CLR,,0.00,WeatherDisplay:10.37,2017-07-21 11:25:00,
2017-07-21 04:30:00,53.6,48.2,29.80,SW,225,0.0,0.0,82,0.00,CLR,,0.00,WeatherDisplay:10.37,2017-07-21 11:30:00,
2017-07-21 04:35:00,53.4,48.4,29.80,SSW,202,0.0,0.0,83,0.00,CLR,,0.00,WeatherDisplay:10.37,2017-07-21 11:35:00,
2017-07-21 04:40:00,53.4,48.4,29.80,South,180,0.0,0.0,83,0.00,CLR,,0.00,WeatherDisplay:10.37,2017-07-21 11:40:00,
2017-07-21 04:46:00,53.2,48.2,29.80,South,180,0.0,0.0,83,0.00,CLR,,0.00,WeatherDisplay:10.37,2017-07-21 11:46:00,
2017-07-21 04:51:00,53.1,48.4,29.81,SW,225,1.2,1.2,84,0.00,CLR,,0.00,WeatherDisplay:10.37,2017-07-21 11:51:00,
2017-07-21 04:56:00,52.9,47.9,29.81,South,180,0.0,0.1,83,0.00,CLR,,0.00,WeatherDisplay:10.37,2017-07-21 11:56:00,
2017-07-21 05:01:00,52.9,47.9,29.81,SSE,158,0.0,0.0,83,0.00,CLR,,0.00,WeatherDisplay:10.37,2017-07-21 12:01:00,
2017-07-21 05:06:00,52.9,47.9,29.81,SW,225,0.0,0.0,83,0.00,CLR,,0.00,WeatherDisplay:10.37,2017-07-21 12:06:00,
2017-07-21 05:11:00,52.7,48.0,29.81,SW,225,0.0,0.0,84,0.00,CLR,,0.00,WeatherDisplay:10.37,2017-07-21 12:11:00,
2017-07-21 05:16:00,52.7,48.0,29.81,South,180,0.0,0.0,84,0.00,CLR,,0.00,WeatherDisplay:10.37,2017-07-21 12:16:00,
2017-07-21 05:21:00,52.3,47.3,29.81,SW,225,0.0,0.0,83,0.00,CLR,,0.00,WeatherDisplay:10.37,2017-07-21 12:21:00,
2017-07-21 05:26:00,52.2,47.2,29.81,SSE,158,0.0,0.0,83,0.00,CLR,,0.00,WeatherDisplay:10.37,2017-07-21 12:26:00,
2017-07-21 05:31:00,52.0,47.3,29.81,SSW,202,0.0,0.0,84,0.00,CLR,,0.00,WeatherDisplay:10.37,2017-07-21 12:31:00,
2017-07-21 05:37:00,51.8,47.4,29.81,SW,225,0.0,0.0,85,0.00,CLR,,0.00,WeatherDisplay:10.37,2017-07-21 12:37:00,
2017-07-21 05:42:00,52.0,47.6,29.81,South,180,0.0,0.0,85,0.00,CLR,,0.00,WeatherDisplay:10.37,2017-07-21 12:42:00,
2017-07-21 05:47:00,51.6,47.3,29.81,SSE,158,0.0,0.0,85,0.00,CLR,,0.00,WeatherDisplay:10.37,2017-07-21 12:47:00,
2017-07-21 05:52:00,51.6,47.3,29.81,SW,225,0.0,0.0,85,0.00,CLR,,0.00,WeatherDisplay:10.37,2017-07-21 12:52:00,
2017-07-21 05:57:00,51.6,47.3,29.81,SSW,202,0.0,0.0,85,0.00,CLR,,0.00,WeatherDisplay:10.37,2017-07-21 12:57:00,
2017-07-21 06:02:00,51.4,46.8,29.81,South,180,0.0,0.0,84,0.00,CLR,,0.00,WeatherDisplay:10.37,2017-07-21 13:02:00,
2017-07-21 06:07:00,51.4,46.8,29.81,South,180,0.0,0.0,84,0.00,CLR,,0.00,WeatherDisplay:10.37,2017-07-21 13:07:00,
2017-07-21 06:12:00,51.4,47.1,29.81,South,180,0.0,0.0,85,0.00,CLR,,0.00,WeatherDisplay:10.37,2017-07-21 13:12:00,
2017-07-21 06:17:00,51.3,46.9,29.81,SSW,202,0.0,0.0,85,0.00,CLR,,0.00,WeatherDisplay:10.37,2017-07-21 13:17:00,
2017-07-21 06:22:00,51.3,46.9,29.81,South,180,0.0,0.0,85,0.00,CLR,,0.00,WeatherDisplay:10.37,2017-07-21 13:22:00,
2017-07-21 06:27:00,51.3,46.9,29.81,SW,225,0.0,0.0,85,0.00,CLR,,0.00,WeatherDisplay:10.37,2017-07-21 13:27:00,
2017-07-21 06:33:00,51.1,47.0,29.82,SW,225,0.0,0.0,86,0.00,CLR,,0.00,WeatherDisplay:10.37,2017-07-21 13:33:00,
2017-07-21 06:38:00,51.1,46.7,29.82,SW,225,0.0,0.0,85,0.00,CLR,,0.00,WeatherDisplay:10.37,2017-07-21 13:38:00,
2017-07-21 06:43:00,51.3,47.2,29.82,SSW,210,0.0,0.0,86,0.00,CLR,,0.00,WeatherDisplay:10.37,2017-07-21 13:43:00,
2017-07-21 06:48:00,51.3,47.2,29.82,SSW,202,0.0,0.0,86,0.00,CLR,,0.00,WeatherDisplay:10.37,2017-07-21 13:48:00,
2017-07-21 06:53:00,51.3,47.2,29.82,SSW,202,0.0,0.0,86,0.00,CLR,,0.00,WeatherDisplay:10.37,2017-07-21 13:53:00,
2017-07-21 06:58:00,51.4,47.4,29.82,SW,225,0.0,0.0,86,0.00,CLR,,0.00,WeatherDisplay:10.37,2017-07-21 13:58:00,
2017-07-21 07:03:00,51.6,47.6,29.82,South,180,0.0,0.0,86,0.00,CLR,,0.00,WeatherDisplay:10.37,2017-07-21 14:03:00,
2017-07-21 07:08:00,51.8,47.7,29.82,SW,225,0.0,0.0,86,0.00,CLR,,0.00,WeatherDisplay:10.37,2017-07-21 14:08:00,
2017-07-21 07:13:00,51.8,47.7,29.82,West,270,0.0,0.0,86,0.00,CLR,,0.00,WeatherDisplay:10.37,2017-07-21 14:13:00,
2017-07-21 07:19:00,52.2,48.1,29.82,West,270,0.0,0.0,86,0.00,CLR,,0.00,WeatherDisplay:10.37,2017-07-21 14:19:00,
2017-07-21 07:24:00,52.2,48.1,29.82,WSW,248,0.0,0.0,86,0.00,CLR,,0.00,WeatherDisplay:10.37,2017-07-21 14:24:00,
2017-07-21 07:29:00,52.3,48.3,29.83,West,270,0.0,0.0,86,0.00,CLR,,0.00,WeatherDisplay:10.37,2017-07-21 14:29:00,
2017-07-21 07:34:00,52.5,48.8,29.83,West,270,0.0,0.0,87,0.00,CLR,,0.00,WeatherDisplay:10.37,2017-07-21 14:34:00,
2017-07-21 07:39:00,52.7,48.9,29.83,WSW,248,0.0,0.0,87,0.00,CLR,,0.00,WeatherDisplay:10.37,2017-07-21 14:39:00,
2017-07-21 07:44:00,52.9,49.1,29.83,WSW,248,0.0,0.0,87,0.00,CLR,,0.00,WeatherDisplay:10.37,2017-07-21 14:44:00,
2017-07-21 07:49:00,52.9,49.1,29.83,West,270,0.0,0.0,87,0.00,CLR,,0.00,WeatherDisplay:10.37,2017-07-21 14:49:00,
2017-07-21 07:54:00,53.1,49.6,29.83,West,270,1.2,0.0,88,0.00,CLR,,0.00,WeatherDisplay:10.37,2017-07-21 14:54:00,
2017-07-21 08:00:00,53.4,49.6,29.83,West,270,0.0,0.1,87,0.00,CLR,,0.00,WeatherDisplay:10.37,2017-07-21 15:00:00,
2017-07-21 08:05:00,53.6,49.8,29.83,WSW,248,0.0,0.1,87,0.00,CLR,,0.00,WeatherDisplay:10.37,2017-07-21 15:05:00,
2017-07-21 08:10:00,53.8,50.0,29.83,WSW,248,1.4,1.4,87,0.00,CLR,,0.00,WeatherDisplay:10.37,2017-07-21 15:10:00,
2017-07-21 08:15:00,54.1,50.4,29.83,WSW,248,1.4,1.4,87,0.00,CLR,,0.00,WeatherDisplay:10.37,2017-07-21 15:15:00,
2017-07-21 08:20:00,54.3,50.5,29.83,WSW,248,0.0,0.5,87,0.00,CLR,,0.00,WeatherDisplay:10.37,2017-07-21 15:20:00,
2017-07-21 08:25:00,54.5,50.7,29.83,West,270,1.2,1.2,87,0.00,CLR,,0.00,WeatherDisplay:10.37,2017-07-21 15:25:00,
2017-07-21 08:30:00,54.9,50.8,29.83,WSW,248,1.5,1.5,86,0.00,CLR,,0.00,WeatherDisplay:10.37,2017-07-21 15:30:00,
2017-07-21 08:35:00,55.2,51.1,29.83,NW,315,0.0,0.7,86,0.00,CLR,,0.00,WeatherDisplay:10.37,2017-07-21 15:35:00,
2017-07-21 08:41:00,55.2,51.1,29.83,NNW,338,0.0,0.3,86,0.00,CLR,,0.00,WeatherDisplay:10.37,2017-07-21 15:41:00,
2017-07-21 08:46:00,55.9,51.5,29.83,SW,225,1.2,1.2,85,0.00,CLR,,0.00,WeatherDisplay:10.37,2017-07-21 15:46:00,
2017-07-21 08:51:00,56.1,51.7,29.83,SSE,158,1.4,1.4,85,0.00,CLR,,0.00,WeatherDisplay:10.37,2017-07-21 15:51:00,
2017-07-21 08:56:00,56.5,51.7,29.83,West,270,1.2,1.2,84,0.00,CLR,,0.00,WeatherDisplay:10.37,2017-07-21 15:56:00,
2017-07-21 09:01:00,56.7,51.6,29.83,WSW,248,2.3,2.3,83,0.00,CLR,,0.00,WeatherDisplay:10.37,2017-07-21 16:01:00,
2017-07-21 09:06:00,57.0,51.9,29.83,ENE,68,0.0,0.3,83,0.00,CLR,,0.00,WeatherDisplay:10.37,2017-07-21 16:06:00,
2017-07-21 09:11:00,57.4,51.9,29.83,NW,315,2.3,2.3,82,0.00,CLR,,0.00,WeatherDisplay:10.37,2017-07-21 16:11:00,
2017-07-21 09:16:00,57.7,51.6,29.83,SW,225,1.5,1.5,80,0.00,CLR,,0.00,WeatherDisplay:10.37,2017-07-21 16:16:00,
2017-07-21 09:19:00,57.9,51.4,29.83,SE,135,2.3,2.3,79,0.00,CLR,,0.00,WeatherDisplay:10.37,2017-07-21 16:19:00,